Regional Weather Roundup
Issued by NWS

Home | Current Version | Previous Version | Text Only | Print | Product List | Glossary Off
Versions: 1 2 3 4 5 6 7 8 9 10 11 12 13 14 15 16 17 18 19 20 21 22 23 24 25 26 27 28 29 30 31 32 33 34 35 36 37 38 39 40 41 42 43 44 45 46 47 48 49 50

000
ASUS43 KBIS 130002
RWRND

NORTH DAKOTA REGIONAL WEATHER ROUNDUP
NATIONAL WEATHER SERVICE BISMARCK ND
600 PM CST FRI FEB 12 2016

NOTE: "FAIR" INDICATES FEW OR NO CLOUDS BELOW 12,000 FEET WITH NO
SIGNIFICANT WEATHER AND/OR OBSTRUCTIONS TO VISIBILITY.


NDZ001>003-009>011-017-130100-
NORTHWEST NORTH DAKOTA

CITY           SKY/WX    TMP DP  RH WIND       PRES   REMARKS
WILLISTON      CLOUDY    13   1  59 E12       30.44F WCI  -1
6HR MIN TEMP:   9; 6HR MAX TEMP:  15;

MINOT          PTCLDY     4  -8  57 NE5       30.54F WCI  -5
MINOT AFB      PTCLDY     4  -7  60 CALM      30.54F
$$

NDZ018>021-031>035-040>046-130100-
SOUTHWEST NORTH DAKOTA

CITY           SKY/WX    TMP DP  RH WIND       PRES   REMARKS
BISMARCK       CLOUDY     8  -3  61 E7        30.58R WCI  -3
6HR MIN TEMP:   8; 6HR MAX TEMP:  14;

DICKINSON      CLOUDY    10   1  67 SE14      30.40F WCI  -6
GARRISON         N/A      6  -3  66 SE5       30.53R WCI  -3
6HR MIN TEMP:   4; 6HR MAX TEMP:  12;

HETTINGER ARPT CLOUDY    13   3  64 SE13      30.44R WCI  -2
$$

NDZ004>008-012>016-024-026-027-054-130100-
NORTHEAST NORTH DAKOTA

CITY           SKY/WX    TMP DP  RH WIND       PRES   REMARKS
GRAND FORKS    PTCLDY    -1 -10  65 NW8       30.68R WCI -15
GRND FRKS AFB  PTCLDY    -3 -13  64 W8        30.67R WCI -18
DEVILS LAKE    CLOUDY    -9 -14  78 N5        30.62F WCI -20
$$

NDZ022-023-025-028>030-036>039-047>053-130100-
SOUTHEAST NORTH DAKOTA

CITY           SKY/WX    TMP DP  RH WIND       PRES   REMARKS
FARGO          PTCLDY     0  -9  65 N9        30.68R WCI -15
6HR MIN TEMP:   0; 6HR MAX TEMP:   2;

JAMESTOWN      CLOUDY    -4 -12  68 N6        30.60F WCI -16
$$




USA.gov is the U.S. government's official web portal to all federal, state and local government web resources and services.